Time,TemperatureF,DewpointF,PressureIn,WindDirection,WindDirectionDegrees,WindSpeedMPH,WindSpeedGustMPH,Humidity,HourlyPrecipIn,Conditions,Clouds,dailyrainin,SoftwareType,DateUTC
2013-05-27 00:01:00,57.9,34.9,30.18,ENE,76,3.0,5.0,42,0.00,,,0.00,Wunderground v.1.15,2013-05-27 04:01:00,
2013-05-27 00:03:00,57.7,35.3,30.17,ENE,76,3.0,5.0,43,0.00,,,0.00,Wunderground v.1.15,2013-05-27 04:03:00,
2013-05-27 00:04:00,57.6,35.2,30.17,ENE,76,4.0,5.0,43,0.00,,,0.00,Wunderground v.1.15,2013-05-27 04:04:00,
2013-05-27 00:05:00,57.5,35.7,30.18,ENE,76,4.0,5.0,44,0.00,,,0.00,Wunderground v.1.15,2013-05-27 04:05:00,
2013-05-27 00:11:00,56.8,35.1,30.18,East,81,4.0,4.0,44,0.00,,,0.00,Wunderground v.1.15,2013-05-27 04:11:00,
2013-05-27 00:16:00,56.7,35.6,30.18,East,81,2.0,4.0,45,0.00,,,0.00,Wunderground v.1.15,2013-05-27 04:16:00,
2013-05-27 00:22:00,56.7,35.6,30.18,East,79,3.0,6.0,45,0.00,,,0.00,Wunderground v.1.15,2013-05-27 04:22:00,
2013-05-27 00:28:00,56.6,34.9,30.18,East,92,6.0,9.0,44,0.00,,,0.00,Wunderground v.1.15,2013-05-27 04:28:00,
2013-05-27 00:34:00,56.7,35.0,30.19,East,94,5.0,6.0,44,0.00,,,0.00,Wunderground v.1.15,2013-05-27 04:34:00,
2013-05-27 00:39:00,56.7,35.0,30.19,East,82,3.0,7.0,44,0.00,,,0.00,Wunderground v.1.15,2013-05-27 04:39:00,
2013-05-27 00:45:00,56.6,35.5,30.19,East,86,4.0,7.0,45,0.00,,,0.00,Wunderground v.1.15,2013-05-27 04:45:00,
2013-05-27 00:50:00,56.3,34.6,30.19,East,93,6.0,6.0,44,0.00,,,0.00,Wunderground v.1.15,2013-05-27 04:50:00,
2013-05-27 00:56:00,56.2,35.1,30.20,ESE,103,3.0,6.0,45,0.00,,,0.00,Wunderground v.1.15,2013-05-27 04:56:00,
2013-05-27 01:01:00,56.2,34.6,30.20,East,96,2.0,6.0,44,0.00,,,0.00,Wunderground v.1.15,2013-05-27 05:01:00,
2013-05-27 01:06:00,55.9,34.8,30.20,East,85,4.0,6.0,45,0.00,,,0.00,Wunderground v.1.15,2013-05-27 05:06:00,
2013-05-27 01:12:00,55.6,34.6,30.20,East,101,4.0,4.0,45,0.00,,,0.00,Wunderground v.1.15,2013-05-27 05:12:00,
2013-05-27 01:17:00,55.4,34.9,30.20,East,101,1.0,4.0,46,0.00,,,0.00,Wunderground v.1.15,2013-05-27 05:17:00,
2013-05-27 01:23:00,55.2,35.3,30.20,East,84,2.0,3.0,47,0.00,,,0.00,Wunderground v.1.15,2013-05-27 05:23:00,
2013-05-27 01:29:00,54.5,35.2,30.20,East,84,3.0,3.0,48,0.00,,,0.00,Wunderground v.1.15,2013-05-27 05:29:00,
2013-05-27 01:35:00,54.2,34.9,30.20,East,84,1.0,3.0,48,0.00,,,0.00,Wunderground v.1.15,2013-05-27 05:35:00,
2013-05-27 01:41:00,54.1,34.3,30.20,East,84,0.0,3.0,47,0.00,,,0.00,Wunderground v.1.15,2013-05-27 05:41:00,
2013-05-27 01:47:00,54.0,35.3,30.20,East,84,2.0,3.0,49,0.00,,,0.00,Wunderground v.1.15,2013-05-27 05:47:00,
2013-05-27 01:52:00,53.9,35.2,30.20,East,84,1.0,2.0,49,0.00,,,0.00,Wunderground v.1.15,2013-05-27 05:52:00,
2013-05-27 01:57:00,53.8,34.6,30.20,East,91,0.0,2.0,48,0.00,,,0.00,Wunderground v.1.15,2013-05-27 05:57:00,
2013-05-27 02:03:00,53.6,34.9,30.20,East,94,3.0,5.0,49,0.00,,,0.00,Wunderground v.1.15,2013-05-27 06:03:00,
2013-05-27 02:09:00,53.5,34.8,30.20,East,94,3.0,5.0,49,0.00,,,0.00,Wunderground v.1.15,2013-05-27 06:09:00,
2013-05-27 02:15:00,53.4,34.7,30.20,East,94,1.0,2.0,49,0.00,,,0.00,Wunderground v.1.15,2013-05-27 06:15:00,
2013-05-27 02:21:00,53.4,34.7,30.20,East,94,1.0,1.0,49,0.00,,,0.00,Wunderground v.1.15,2013-05-27 06:21:00,
2013-05-27 02:26:00,53.4,34.7,30.21,East,94,1.0,2.0,49,0.00,,,0.00,Wunderground v.1.15,2013-05-27 06:26:00,
2013-05-27 02:32:00,53.4,34.7,30.21,East,94,1.0,1.0,49,0.00,,,0.00,Wunderground v.1.15,2013-05-27 06:32:00,
2013-05-27 02:37:00,53.3,34.6,30.21,East,94,1.0,2.0,49,0.00,,,0.00,Wunderground v.1.15,2013-05-27 06:37:00,
2013-05-27 02:43:00,53.2,35.0,30.21,East,94,1.0,2.0,50,0.00,,,0.00,Wunderground v.1.15,2013-05-27 06:43:00,
2013-05-27 02:49:00,53.1,34.4,30.21,East,94,0.0,2.0,49,0.00,,,0.00,Wunderground v.1.15,2013-05-27 06:49:00,
2013-05-27 02:54:00,53.1,34.4,30.21,East,94,0.0,1.0,49,0.00,,,0.00,Wunderground v.1.15,2013-05-27 06:54:00,
2013-05-27 02:59:00,52.9,34.2,30.21,East,94,0.0,1.0,49,0.00,,,0.00,Wunderground v.1.15,2013-05-27 06:59:00,
2013-05-27 03:04:00,52.9,34.8,30.21,East,94,0.0,1.0,50,0.00,,,0.00,Wunderground v.1.15,2013-05-27 07:04:00,
2013-05-27 03:10:00,52.7,34.6,30.21,East,94,0.0,1.0,50,0.00,,,0.00,Wunderground v.1.15,2013-05-27 07:10:00,
2013-05-27 03:16:00,52.7,34.6,30.21,East,94,0.0,1.0,50,0.00,,,0.00,Wunderground v.1.15,2013-05-27 07:16:00,
2013-05-27 03:21:00,52.7,34.6,30.21,East,94,1.0,1.0,50,0.00,,,0.00,Wunderground v.1.15,2013-05-27 07:21:00,
2013-05-27 03:26:00,52.7,34.6,30.21,East,94,1.0,2.0,50,0.00,,,0.00,Wunderground v.1.15,2013-05-27 07:26:00,
2013-05-27 03:32:00,52.6,34.0,30.21,East,94,1.0,1.0,49,0.00,,,0.00,Wunderground v.1.15,2013-05-27 07:32:00,
2013-05-27 03:37:00,52.6,34.0,30.21,East,94,0.0,1.0,49,0.00,,,0.00,Wunderground v.1.15,2013-05-27 07:37:00,
2013-05-27 03:43:00,52.5,33.9,30.21,East,94,0.0,0.0,49,0.00,,,0.00,Wunderground v.1.15,2013-05-27 07:43:00,
2013-05-27 03:49:00,52.4,33.8,30.21,East,94,0.0,1.0,49,0.00,,,0.00,Wunderground v.1.15,2013-05-27 07:49:00,
2013-05-27 03:54:00,52.4,33.8,30.21,East,94,0.0,1.0,49,0.00,,,0.00,Wunderground v.1.15,2013-05-27 07:54:00,
2013-05-27 04:01:00,52.3,33.2,30.21,East,94,0.0,0.0,48,0.00,,,0.00,Wunderground v.1.15,2013-05-27 08:01:00,
2013-05-27 04:07:00,52.2,33.6,30.21,East,94,0.0,0.0,49,0.00,,,0.00,Wunderground v.1.15,2013-05-27 08:07:00,
2013-05-27 04:12:00,52.2,33.6,30.21,East,94,0.0,1.0,49,0.00,,,0.00,Wunderground v.1.15,2013-05-27 08:12:00,
2013-05-27 04:17:00,52.1,33.0,30.21,East,94,0.0,2.0,48,0.00,,,0.00,Wunderground v.1.15,2013-05-27 08:17:00,
2013-05-27 04:23:00,52.2,33.1,30.21,East,94,0.0,0.0,48,0.00,,,0.00,Wunderground v.1.15,2013-05-27 08:23:00,
2013-05-27 04:28:00,52.2,33.6,30.21,East,94,0.0,1.0,49,0.00,,,0.00,Wunderground v.1.15,2013-05-27 08:28:00,
2013-05-27 04:33:00,52.1,33.5,30.21,East,94,1.0,1.0,49,0.00,,,0.00,Wunderground v.1.15,2013-05-27 08:33:00,
2013-05-27 04:38:00,52.1,33.5,30.21,East,94,1.0,1.0,49,0.00,,,0.00,Wunderground v.1.15,2013-05-27 08:38:00,
2013-05-27 04:43:00,52.1,33.5,30.21,East,94,0.0,1.0,49,0.00,,,0.00,Wunderground v.1.15,2013-05-27 08:43:00,
2013-05-27 04:49:00,52.1,33.0,30.21,East,94,0.0,2.0,48,0.00,,,0.00,Wunderground v.1.15,2013-05-27 08:49:00,
2013-05-27 04:54:00,52.1,33.0,30.21,East,94,1.0,1.0,48,0.00,,,0.00,Wunderground v.1.15,2013-05-27 08:54:00,
2013-05-27 04:59:00,52.1,33.0,30.21,East,94,0.0,1.0,48,0.00,,,0.00,Wunderground v.1.15,2013-05-27 08:59:00,
2013-05-27 05:05:00,52.1,33.5,30.21,East,94,0.0,0.0,49,0.00,,,0.00,Wunderground v.1.15,2013-05-27 09:05:00,
2013-05-27 05:10:00,52.1,33.5,30.21,East,94,0.0,1.0,49,0.00,,,0.00,Wunderground v.1.15,2013-05-27 09:10:00,
2013-05-27 05:16:00,52.1,33.0,30.22,East,94,1.0,2.0,48,0.00,,,0.00,Wunderground v.1.15,2013-05-27 09:16:00,
2013-05-27 05:22:00,52.2,33.6,30.21,East,94,0.0,1.0,49,0.00,,,0.00,Wunderground v.1.15,2013-05-27 09:22:00,
2013-05-27 05:27:00,52.1,33.0,30.22,East,94,0.0,1.0,48,0.00,,,0.00,Wunderground v.1.15,2013-05-27 09:27:00,
2013-05-27 05:32:00,52.1,32.5,30.21,East,94,0.0,0.0,47,0.00,,,0.00,Wunderground v.1.15,2013-05-27 09:32:00,
2013-05-27 05:37:00,52.2,33.1,30.21,East,94,0.0,1.0,48,0.00,,,0.00,Wunderground v.1.15,2013-05-27 09:37:00,
2013-05-27 05:42:00,52.1,33.0,30.21,East,94,0.0,0.0,48,0.00,,,0.00,Wunderground v.1.15,2013-05-27 09:42:00,
2013-05-27 05:48:00,52.1,33.0,30.22,East,94,0.0,0.0,48,0.00,,,0.00,Wunderground v.1.15,2013-05-27 09:48:00,
2013-05-27 05:54:00,52.0,32.9,30.22,East,94,0.0,1.0,48,0.00,,,0.00,Wunderground v.1.15,2013-05-27 09:54:00,
2013-05-27 06:00:00,51.9,33.3,30.22,East,94,0.0,0.0,49,0.00,,,0.00,Wunderground v.1.15,2013-05-27 10:00:00,
2013-05-27 06:05:00,51.8,32.7,30.22,East,94,0.0,0.0,48,0.00,,,0.00,Wunderground v.1.15,2013-05-27 10:05:00,
2013-05-27 06:10:00,51.8,32.7,30.22,East,94,0.0,1.0,48,0.00,,,0.00,Wunderground v.1.15,2013-05-27 10:10:00,
2013-05-27 06:16:00,52.0,32.9,30.22,East,94,0.0,1.0,48,0.00,,,0.00,Wunderground v.1.15,2013-05-27 10:16:00,
2013-05-27 06:21:00,52.2,33.1,30.22,East,94,0.0,0.0,48,0.00,,,0.00,Wunderground v.1.15,2013-05-27 10:21:00,
2013-05-27 06:27:00,52.5,33.4,30.22,East,94,0.0,0.0,48,0.00,,,0.00,Wunderground v.1.15,2013-05-27 10:27:00,
2013-05-27 06:33:00,52.8,33.6,30.22,East,94,0.0,0.0,48,0.00,,,0.00,Wunderground v.1.15,2013-05-27 10:33:00,
2013-05-27 06:38:00,53.0,33.3,30.22,East,94,0.0,0.0,47,0.00,,,0.00,Wunderground v.1.15,2013-05-27 10:38:00,
2013-05-27 06:43:00,53.3,33.6,30.22,East,94,0.0,0.0,47,0.00,,,0.00,Wunderground v.1.15,2013-05-27 10:43:00,
2013-05-27 06:49:00,53.8,36.6,30.23,East,94,0.0,0.0,52,0.00,,,0.00,Wunderground v.1.15,2013-05-27 10:49:00,
2013-05-27 06:55:00,54.1,33.8,30.23,East,94,0.0,0.0,46,0.00,,,0.00,Wunderground v.1.15,2013-05-27 10:55:00,
2013-05-27 07:01:00,54.5,34.1,30.23,East,94,1.0,2.0,46,0.00,,,0.00,Wunderground v.1.15,2013-05-27 11:01:00,
2013-05-27 07:06:00,54.8,37.5,30.23,East,94,1.0,2.0,52,0.00,,,0.00,Wunderground v.1.15,2013-05-27 11:06:00,
2013-05-27 07:11:00,55.0,36.2,30.23,East,94,0.0,1.0,49,0.00,,,0.00,Wunderground v.1.15,2013-05-27 11:11:00,
2013-05-27 07:17:00,55.0,36.2,30.23,East,94,0.0,1.0,49,0.00,,,0.00,Wunderground v.1.15,2013-05-27 11:17:00,
2013-05-27 07:22:00,55.0,37.2,30.23,East,94,0.0,0.0,51,0.00,,,0.00,Wunderground v.1.15,2013-05-27 11:22:00,
2013-05-27 07:27:00,55.3,40.3,30.23,East,94,0.0,0.0,57,0.00,,,0.00,Wunderground v.1.15,2013-05-27 11:27:00,
2013-05-27 07:33:00,55.4,40.4,30.23,East,94,0.0,0.0,57,0.00,,,0.00,Wunderground v.1.15,2013-05-27 11:33:00,
2013-05-27 07:39:00,55.7,39.3,30.23,East,94,0.0,0.0,54,0.00,,,0.00,Wunderground v.1.15,2013-05-27 11:39:00,
2013-05-27 07:45:00,56.2,38.8,30.23,East,94,0.0,0.0,52,0.00,,,0.00,Wunderground v.1.15,2013-05-27 11:45:00,
2013-05-27 07:51:00,56.9,38.9,30.23,East,94,0.0,0.0,51,0.00,,,0.00,Wunderground v.1.15,2013-05-27 11:51:00,
2013-05-27 07:56:00,57.9,38.8,30.23,East,94,0.0,2.0,49,0.00,,,0.00,Wunderground v.1.15,2013-05-27 11:56:00,
2013-05-27 08:01:00,58.5,39.9,30.23,East,94,1.0,2.0,50,0.00,,,0.00,Wunderground v.1.15,2013-05-27 12:01:00,
2013-05-27 08:07:00,59.0,41.9,30.23,East,94,1.0,2.0,53,0.00,,,0.00,Wunderground v.1.15,2013-05-27 12:07:00,
2013-05-27 08:13:00,59.3,42.6,30.23,East,94,1.0,1.0,54,0.00,,,0.00,Wunderground v.1.15,2013-05-27 12:13:00,
2013-05-27 08:19:00,59.5,42.3,30.24,East,90,0.0,2.0,53,0.00,,,0.00,Wunderground v.1.15,2013-05-27 12:19:00,
2013-05-27 08:25:00,59.6,43.9,30.24,East,90,1.0,2.0,56,0.00,,,0.00,Wunderground v.1.15,2013-05-27 12:25:00,
2013-05-27 08:32:00,59.7,44.4,30.24,East,90,1.0,1.0,57,0.00,,,0.00,Wunderground v.1.15,2013-05-27 12:32:00,
2013-05-27 08:37:00,59.7,43.0,30.23,East,90,1.0,2.0,54,0.00,,,0.00,Wunderground v.1.15,2013-05-27 12:37:00,
2013-05-27 08:43:00,59.9,41.7,30.24,East,90,1.0,1.0,51,0.00,,,0.00,Wunderground v.1.15,2013-05-27 12:43:00,
2013-05-27 08:49:00,60.0,39.7,30.24,East,90,0.0,1.0,47,0.00,,,0.00,Wunderground v.1.15,2013-05-27 12:49:00,
2013-05-27 08:55:00,60.0,39.7,30.24,East,90,0.0,1.0,47,0.00,,,0.00,Wunderground v.1.15,2013-05-27 12:55:00,
2013-05-27 09:01:00,60.7,41.9,30.23,East,90,1.0,2.0,50,0.00,,,0.00,Wunderground v.1.15,2013-05-27 13:01:00,
2013-05-27 09:07:00,61.2,41.9,30.23,East,90,1.0,2.0,49,0.00,,,0.00,Wunderground v.1.15,2013-05-27 13:07:00,
2013-05-27 09:13:00,61.3,41.4,30.23,East,90,0.0,1.0,48,0.00,,,0.00,Wunderground v.1.15,2013-05-27 13:13:00,
2013-05-27 09:18:00,61.6,42.2,30.23,East,90,0.0,2.0,49,0.00,,,0.00,Wunderground v.1.15,2013-05-27 13:18:00,
2013-05-27 09:24:00,61.9,40.3,30.24,ENE,75,1.0,3.0,45,0.00,,,0.00,Wunderground v.1.15,2013-05-27 13:24:00,
2013-05-27 09:31:00,62.3,40.7,30.24,ENE,61,2.0,3.0,45,0.00,,,0.00,Wunderground v.1.15,2013-05-27 13:31:00,
2013-05-27 09:37:00,62.4,39.0,30.24,ENE,61,2.0,3.0,42,0.00,,,0.00,Wunderground v.1.15,2013-05-27 13:37:00,
2013-05-27 09:43:00,62.5,39.7,30.24,NE,51,1.0,3.0,43,0.00,,,0.00,Wunderground v.1.15,2013-05-27 13:43:00,
2013-05-27 09:49:00,62.7,40.5,30.24,NNW,333,1.0,3.0,44,0.00,,,0.00,Wunderground v.1.15,2013-05-27 13:49:00,
2013-05-27 09:54:00,62.8,40.5,30.24,North,355,2.0,4.0,44,0.00,,,0.00,Wunderground v.1.15,2013-05-27 13:54:00,
2013-05-27 09:59:00,62.9,40.0,30.24,North,11,2.0,4.0,43,0.00,,,0.00,Wunderground v.1.15,2013-05-27 13:59:00,
2013-05-27 10:05:00,62.8,40.0,30.24,North,5,2.0,3.0,43,0.00,,,0.00,Wunderground v.1.15,2013-05-27 14:05:00,
2013-05-27 10:11:00,62.9,38.8,30.24,North,350,2.0,2.0,41,0.00,,,0.00,Wunderground v.1.15,2013-05-27 14:11:00,
2013-05-27 10:17:00,63.1,38.4,30.24,NNE,31,2.0,5.0,40,0.00,,,0.00,Wunderground v.1.15,2013-05-27 14:17:00,
2013-05-27 10:22:00,63.5,40.0,30.24,NNE,31,3.0,3.0,42,0.00,,,0.00,Wunderground v.1.15,2013-05-27 14:22:00,
2013-05-27 10:28:00,63.5,38.7,30.24,West,279,3.0,8.0,40,0.00,,,0.00,Wunderground v.1.15,2013-05-27 14:28:00,
2013-05-27 10:34:00,63.3,38.6,30.24,NW,326,3.0,4.0,40,0.00,,,0.00,Wunderground v.1.15,2013-05-27 14:34:00,
2013-05-27 10:39:00,63.5,39.4,30.24,WNW,298,2.0,5.0,41,0.00,,,0.00,Wunderground v.1.15,2013-05-27 14:39:00,
2013-05-27 10:45:00,63.6,38.2,30.24,West,273,4.0,9.0,39,0.00,,,0.00,Wunderground v.1.15,2013-05-27 14:45:00,
2013-05-27 10:50:00,63.9,39.7,30.24,West,281,4.0,6.0,41,0.00,,,0.00,Wunderground v.1.15,2013-05-27 14:50:00,
2013-05-27 10:56:00,63.8,39.0,30.24,West,277,5.0,7.0,40,0.00,,,0.00,Wunderground v.1.15,2013-05-27 14:56:00,
2013-05-27 11:01:00,63.6,38.8,30.24,WNW,288,6.0,9.0,40,0.00,,,0.00,Wunderground v.1.15,2013-05-27 15:01:00,
2013-05-27 11:07:00,63.5,39.4,30.24,NW,304,6.0,9.0,41,0.00,,,0.00,Wunderground v.1.15,2013-05-27 15:07:00,
2013-05-27 11:13:00,63.9,39.7,30.24,NW,308,5.0,6.0,41,0.00,,,0.00,Wunderground v.1.15,2013-05-27 15:13:00,
2013-05-27 11:19:00,64.2,41.2,30.24,WNW,288,6.0,9.0,43,0.00,,,0.00,Wunderground v.1.15,2013-05-27 15:19:00,
2013-05-27 11:24:00,64.3,38.8,30.23,West,275,6.0,9.0,39,0.00,,,0.00,Wunderground v.1.15,2013-05-27 15:24:00,
2013-05-27 11:32:00,64.4,38.2,30.23,NW,325,5.0,5.0,38,0.00,,,0.00,Wunderground v.1.15,2013-05-27 15:32:00,
2013-05-27 11:37:00,64.6,37.7,30.24,WNW,295,5.0,6.0,37,0.00,,,0.00,Wunderground v.1.15,2013-05-27 15:37:00,
2013-05-27 11:43:00,64.7,38.5,30.24,West,263,4.0,6.0,38,0.00,,,0.00,Wunderground v.1.15,2013-05-27 15:43:00,
2013-05-27 11:48:00,65.0,39.4,30.24,NW,306,5.0,7.0,39,0.00,,,0.00,Wunderground v.1.15,2013-05-27 15:48:00,
2013-05-27 11:53:00,65.2,39.6,30.24,NNW,337,4.0,5.0,39,0.00,,,0.00,Wunderground v.1.15,2013-05-27 15:53:00,
2013-05-27 11:59:00,65.5,41.2,30.23,NNW,329,4.0,9.0,41,0.00,,,0.00,Wunderground v.1.15,2013-05-27 15:59:00,
2013-05-27 12:06:00,65.8,39.5,30.23,WNW,288,7.0,12.0,38,0.00,,,0.00,Wunderground v.1.15,2013-05-27 16:06:00,
2013-05-27 12:11:00,65.7,38.7,30.23,WSW,252,7.0,7.0,37,0.00,,,0.00,Wunderground v.1.15,2013-05-27 16:11:00,
2013-05-27 12:17:00,66.1,39.7,30.22,West,274,4.0,7.0,38,0.00,,,0.00,Wunderground v.1.15,2013-05-27 16:17:00,
2013-05-27 12:22:00,66.4,40.7,30.22,NNW,329,4.0,9.0,39,0.00,,,0.00,Wunderground v.1.15,2013-05-27 16:22:00,
2013-05-27 12:28:00,66.8,41.0,30.22,NW,321,5.0,9.0,39,0.00,,,0.00,Wunderground v.1.15,2013-05-27 16:28:00,
2013-05-27 12:34:00,67.1,39.9,30.22,West,265,6.0,8.0,37,0.00,,,0.00,Wunderground v.1.15,2013-05-27 16:34:00,
2013-05-27 12:40:00,67.1,39.2,30.22,WSW,240,6.0,6.0,36,0.00,,,0.00,Wunderground v.1.15,2013-05-27 16:40:00,
2013-05-27 12:45:00,67.0,39.9,30.21,WNW,293,6.0,7.0,37,0.00,,,0.00,Wunderground v.1.15,2013-05-27 16:45:00,
2013-05-27 12:50:00,67.1,39.9,30.21,WNW,288,5.0,5.0,37,0.00,,,0.00,Wunderground v.1.15,2013-05-27 16:50:00,
2013-05-27 12:56:00,67.3,40.1,30.21,NW,312,3.0,5.0,37,0.00,,,0.00,Wunderground v.1.15,2013-05-27 16:56:00,
2013-05-27 13:02:00,67.8,40.6,30.20,West,279,4.0,9.0,37,0.00,,,0.00,Wunderground v.1.15,2013-05-27 17:02:00,
2013-05-27 13:08:00,67.6,40.4,30.20,West,281,7.0,9.0,37,0.00,,,0.00,Wunderground v.1.15,2013-05-27 17:08:00,
2013-05-27 13:14:00,67.6,40.4,30.20,WNW,282,8.0,12.0,37,0.00,,,0.00,Wunderground v.1.15,2013-05-27 17:14:00,
2013-05-27 13:19:00,67.9,41.3,30.20,NNW,337,7.0,12.0,38,0.00,,,0.00,Wunderground v.1.15,2013-05-27 17:19:00,
2013-05-27 13:25:00,68.3,40.3,30.20,NW,323,5.0,13.0,36,0.00,,,0.00,Wunderground v.1.15,2013-05-27 17:25:00,
2013-05-27 13:32:00,68.6,40.6,30.19,WNW,290,4.0,7.0,36,0.00,,,0.00,Wunderground v.1.15,2013-05-27 17:32:00,
2013-05-27 13:37:00,68.8,40.7,30.19,WNW,294,4.0,7.0,36,0.00,,,0.00,Wunderground v.1.15,2013-05-27 17:37:00,
2013-05-27 13:43:00,68.9,41.5,30.19,West,271,4.0,10.0,37,0.00,,,0.00,Wunderground v.1.15,2013-05-27 17:43:00,
2013-05-27 13:49:00,68.6,42.0,30.18,West,281,5.0,10.0,38,0.00,,,0.00,Wunderground v.1.15,2013-05-27 17:49:00,
2013-05-27 13:55:00,68.6,41.3,30.18,NNW,344,5.0,8.0,37,0.00,,,0.00,Wunderground v.1.15,2013-05-27 17:55:00,
2013-05-27 14:01:00,68.7,40.7,30.18,North,360,4.0,4.0,36,0.00,,,0.00,Wunderground v.1.15,2013-05-27 18:01:00,
2013-05-27 14:07:00,68.9,40.1,30.18,North,360,3.0,4.0,35,0.00,,,0.00,Wunderground v.1.15,2013-05-27 18:07:00,
2013-05-27 14:13:00,69.2,41.8,30.18,North,355,4.0,6.0,37,0.00,,,0.00,Wunderground v.1.15,2013-05-27 18:13:00,
2013-05-27 14:19:00,68.9,40.8,30.18,WNW,282,7.0,11.0,36,0.00,,,0.00,Wunderground v.1.15,2013-05-27 18:19:00,
2013-05-27 14:25:00,68.7,39.9,30.18,West,280,6.0,8.0,35,0.00,,,0.00,Wunderground v.1.15,2013-05-27 18:25:00,
2013-05-27 14:31:00,68.8,41.5,30.17,West,267,4.0,6.0,37,0.00,,,0.00,Wunderground v.1.15,2013-05-27 18:31:00,
2013-05-27 14:37:00,69.0,40.9,30.17,WNW,301,5.0,9.0,36,0.00,,,0.00,Wunderground v.1.15,2013-05-27 18:37:00,
2013-05-27 14:42:00,69.1,41.0,30.17,West,277,6.0,7.0,36,0.00,,,0.00,Wunderground v.1.15,2013-05-27 18:42:00,
2013-05-27 14:48:00,69.1,41.7,30.17,WNW,292,5.0,7.0,37,0.00,,,0.00,Wunderground v.1.15,2013-05-27 18:48:00,
2013-05-27 14:53:00,69.1,40.3,30.17,WNW,292,5.0,6.0,35,0.00,,,0.00,Wunderground v.1.15,2013-05-27 18:53:00,
2013-05-27 14:59:00,69.4,40.5,30.16,WNW,302,6.0,11.0,35,0.00,,,0.00,Wunderground v.1.15,2013-05-27 18:59:00,
2013-05-27 15:04:00,69.3,40.5,30.16,NW,309,6.0,7.0,35,0.00,,,0.00,Wunderground v.1.15,2013-05-27 19:04:00,
2013-05-27 15:10:00,69.3,40.5,30.16,WNW,296,6.0,6.0,35,0.00,,,0.00,Wunderground v.1.15,2013-05-27 19:10:00,
2013-05-27 15:16:00,69.2,41.1,30.16,West,280,7.0,11.0,36,0.00,,,0.00,Wunderground v.1.15,2013-05-27 19:16:00,
2013-05-27 15:22:00,68.9,39.4,30.16,West,279,9.0,10.0,34,0.00,,,0.00,Wunderground v.1.15,2013-05-27 19:22:00,
2013-05-27 15:28:00,68.9,40.8,30.16,West,277,7.0,11.0,36,0.00,,,0.00,Wunderground v.1.15,2013-05-27 19:28:00,
2013-05-27 15:34:00,68.7,39.2,30.16,WNW,290,8.0,11.0,34,0.00,,,0.00,Wunderground v.1.15,2013-05-27 19:34:00,
2013-05-27 15:39:00,68.8,40.7,30.16,WNW,300,7.0,11.0,36,0.00,,,0.00,Wunderground v.1.15,2013-05-27 19:39:00,
2013-05-27 15:45:00,69.0,40.2,30.16,North,355,5.0,7.0,35,0.00,,,0.00,Wunderground v.1.15,2013-05-27 19:45:00,
2013-05-27 15:50:00,69.2,40.4,30.16,NW,321,6.0,6.0,35,0.00,,,0.00,Wunderground v.1.15,2013-05-27 19:50:00,
2013-05-27 15:56:00,69.2,41.1,30.16,NNW,346,6.0,8.0,36,0.00,,,0.00,Wunderground v.1.15,2013-05-27 19:56:00,
2013-05-27 16:01:00,69.1,42.4,30.15,NNW,327,5.0,5.0,38,0.00,,,0.00,Wunderground v.1.15,2013-05-27 20:01:00,
2013-05-27 16:07:00,68.9,41.5,30.15,NW,323,5.0,9.0,37,0.00,,,0.00,Wunderground v.1.15,2013-05-27 20:07:00,
2013-05-27 16:12:00,68.9,40.8,30.15,NW,307,6.0,6.0,36,0.00,,,0.00,Wunderground v.1.15,2013-05-27 20:12:00,
2013-05-27 16:17:00,68.9,40.8,30.15,NW,320,6.0,8.0,36,0.00,,,0.00,Wunderground v.1.15,2013-05-27 20:17:00,
2013-05-27 16:23:00,69.0,43.0,30.15,WNW,302,6.0,6.0,39,0.00,,,0.00,Wunderground v.1.15,2013-05-27 20:23:00,
2013-05-27 16:29:00,69.0,42.3,30.15,NNW,338,6.0,8.0,38,0.00,,,0.00,Wunderground v.1.15,2013-05-27 20:29:00,
2013-05-27 16:34:00,68.9,41.5,30.15,NW,305,6.0,7.0,37,0.00,,,0.00,Wunderground v.1.15,2013-05-27 20:34:00,
2013-05-27 16:39:00,68.9,43.6,30.14,NW,324,6.0,9.0,40,0.00,,,0.00,Wunderground v.1.15,2013-05-27 20:39:00,
2013-05-27 16:45:00,68.8,42.1,30.14,WNW,292,5.0,8.0,38,0.00,,,0.00,Wunderground v.1.15,2013-05-27 20:45:00,
2013-05-27 16:50:00,68.7,42.7,30.14,NW,305,5.0,5.0,39,0.00,,,0.00,Wunderground v.1.15,2013-05-27 20:50:00,
2013-05-27 16:56:00,68.5,43.2,30.14,NNW,331,5.0,9.0,40,0.00,,,0.00,Wunderground v.1.15,2013-05-27 20:56:00,
2013-05-27 17:01:00,68.3,43.0,30.14,WNW,299,6.0,6.0,40,0.00,,,0.00,Wunderground v.1.15,2013-05-27 21:01:00,
2013-05-27 17:07:00,68.1,42.2,30.14,WNW,302,7.0,12.0,39,0.00,,,0.00,Wunderground v.1.15,2013-05-27 21:07:00,
2013-05-27 17:13:00,68.0,43.4,30.14,NW,321,6.0,9.0,41,0.00,,,0.00,Wunderground v.1.15,2013-05-27 21:13:00,
2013-05-27 17:18:00,68.0,42.8,30.14,WNW,300,6.0,9.0,40,0.00,,,0.00,Wunderground v.1.15,2013-05-27 21:18:00,
2013-05-27 17:24:00,67.9,42.7,30.14,West,273,7.0,10.0,40,0.00,,,0.00,Wunderground v.1.15,2013-05-27 21:24:00,
2013-05-27 17:31:00,67.5,43.6,30.15,WNW,293,7.0,9.0,42,0.00,,,0.00,Wunderground v.1.15,2013-05-27 21:31:00,
2013-05-27 17:37:00,67.2,42.7,30.15,WNW,288,7.0,9.0,41,0.00,,,0.00,Wunderground v.1.15,2013-05-27 21:37:00,
2013-05-27 17:42:00,67.0,43.1,30.15,WNW,291,8.0,8.0,42,0.00,,,0.00,Wunderground v.1.15,2013-05-27 21:42:00,
2013-05-27 17:48:00,66.8,43.0,30.14,West,281,7.0,8.0,42,0.00,,,0.00,Wunderground v.1.15,2013-05-27 21:48:00,
2013-05-27 17:54:00,66.6,42.8,30.14,WNW,294,7.0,7.0,42,0.00,,,0.00,Wunderground v.1.15,2013-05-27 21:54:00,
2013-05-27 17:59:00,66.5,43.9,30.14,WNW,292,6.0,7.0,44,0.00,,,0.00,Wunderground v.1.15,2013-05-27 21:59:00,
2013-05-27 18:07:00,66.5,44.5,30.14,WNW,300,5.0,6.0,45,0.00,,,0.00,Wunderground v.1.15,2013-05-27 22:07:00,
2013-05-27 18:12:00,66.5,45.1,30.14,WNW,294,4.0,5.0,46,0.00,,,0.00,Wunderground v.1.15,2013-05-27 22:12:00,
2013-05-27 18:18:00,66.3,43.7,30.14,NW,315,5.0,7.0,44,0.00,,,0.00,Wunderground v.1.15,2013-05-27 22:18:00,
2013-05-27 18:26:00,66.1,44.1,30.14,WNW,298,5.0,7.0,45,0.00,,,0.00,Wunderground v.1.15,2013-05-27 22:26:00,
2013-05-27 18:31:00,65.9,44.5,30.14,WNW,284,5.0,6.0,46,0.00,,,0.00,Wunderground v.1.15,2013-05-27 22:31:00,
2013-05-27 18:37:00,65.8,44.4,30.14,NW,316,6.0,8.0,46,0.00,,,0.00,Wunderground v.1.15,2013-05-27 22:37:00,
2013-05-27 18:42:00,65.6,44.3,30.14,WNW,302,6.0,8.0,46,0.00,,,0.00,Wunderground v.1.15,2013-05-27 22:42:00,
2013-05-27 18:48:00,65.4,44.6,30.14,NW,304,6.0,8.0,47,0.00,,,0.00,Wunderground v.1.15,2013-05-27 22:48:00,
2013-05-27 18:53:00,65.2,43.9,30.14,NW,315,6.0,8.0,46,0.00,,,0.00,Wunderground v.1.15,2013-05-27 22:53:00,
2013-05-27 18:59:00,65.0,44.8,30.14,WNW,298,5.0,8.0,48,0.00,,,0.00,Wunderground v.1.15,2013-05-27 22:59:00,
2013-05-27 19:05:00,64.8,44.6,30.14,WNW,291,4.0,5.0,48,0.00,,,0.00,Wunderground v.1.15,2013-05-27 23:05:00,
2013-05-27 19:11:00,64.6,45.0,30.14,WNW,291,4.0,4.0,49,0.00,,,0.00,Wunderground v.1.15,2013-05-27 23:11:00,
2013-05-27 19:17:00,64.4,44.3,30.14,NW,313,4.0,7.0,48,0.00,,,0.00,Wunderground v.1.15,2013-05-27 23:17:00,
2013-05-27 19:22:00,64.3,44.7,30.14,NW,321,4.0,4.0,49,0.00,,,0.00,Wunderground v.1.15,2013-05-27 23:22:00,
2013-05-27 19:28:00,64.1,45.1,30.14,WNW,297,3.0,4.0,50,0.00,,,0.00,Wunderground v.1.15,2013-05-27 23:28:00,
2013-05-27 19:33:00,63.9,45.4,30.14,WNW,296,3.0,4.0,51,0.00,,,0.00,Wunderground v.1.15,2013-05-27 23:33:00,
2013-05-27 19:38:00,63.7,45.2,30.14,WNW,296,3.0,4.0,51,0.00,,,0.00,Wunderground v.1.15,2013-05-27 23:38:00,
2013-05-27 19:44:00,63.5,45.0,30.14,WNW,287,3.0,5.0,51,0.00,,,0.00,Wunderground v.1.15,2013-05-27 23:44:00,
2013-05-27 19:49:00,63.2,45.3,30.14,WNW,286,4.0,5.0,52,0.00,,,0.00,Wunderground v.1.15,2013-05-27 23:49:00,
2013-05-27 19:55:00,62.9,45.5,30.15,WNW,286,3.0,4.0,53,0.00,,,0.00,Wunderground v.1.15,2013-05-27 23:55:00,
2013-05-27 20:01:00,62.6,45.2,30.15,WNW,286,3.0,3.0,53,0.00,,,0.00,Wunderground v.1.15,2013-05-28 00:01:00,
2013-05-27 20:07:00,62.3,45.4,30.14,WNW,286,3.0,4.0,54,0.00,,,0.00,Wunderground v.1.15,2013-05-28 00:07:00,
2013-05-27 20:13:00,62.1,45.2,30.14,WNW,286,2.0,3.0,54,0.00,,,0.00,Wunderground v.1.15,2013-05-28 00:13:00,
2013-05-27 20:19:00,61.8,45.0,30.14,WNW,286,2.0,3.0,54,0.00,,,0.00,Wunderground v.1.15,2013-05-28 00:19:00,
2013-05-27 20:25:00,61.7,44.9,30.14,WNW,286,2.0,2.0,54,0.00,,,0.00,Wunderground v.1.15,2013-05-28 00:25:00,
2013-05-27 20:32:00,61.5,45.2,30.14,WNW,286,2.0,2.0,55,0.00,,,0.00,Wunderground v.1.15,2013-05-28 00:32:00,
2013-05-27 20:37:00,61.3,45.0,30.14,WNW,286,2.0,3.0,55,0.00,,,0.00,Wunderground v.1.15,2013-05-28 00:37:00,
2013-05-27 20:43:00,61.1,44.8,30.15,WNW,286,3.0,3.0,55,0.00,,,0.00,Wunderground v.1.15,2013-05-28 00:43:00,
2013-05-27 20:49:00,60.9,45.1,30.14,WNW,286,2.0,3.0,56,0.00,,,0.00,Wunderground v.1.15,2013-05-28 00:49:00,
2013-05-27 20:54:00,60.8,44.5,30.14,WNW,286,2.0,3.0,55,0.00,,,0.00,Wunderground v.1.15,2013-05-28 00:54:00,
2013-05-27 20:59:00,60.7,44.4,30.14,WNW,286,2.0,3.0,55,0.00,,,0.00,Wunderground v.1.15,2013-05-28 00:59:00,
2013-05-27 21:05:00,60.6,44.3,30.14,WNW,286,2.0,2.0,55,0.00,,,0.00,Wunderground v.1.15,2013-05-28 01:05:00,
2013-05-27 21:11:00,60.6,44.8,30.14,WNW,286,1.0,1.0,56,0.00,,,0.00,Wunderground v.1.15,2013-05-28 01:11:00,
2013-05-27 21:17:00,60.4,44.6,30.14,WNW,286,1.0,2.0,56,0.00,,,0.00,Wunderground v.1.15,2013-05-28 01:17:00,
2013-05-27 21:23:00,60.4,45.1,30.15,WNW,286,2.0,2.0,57,0.00,,,0.00,Wunderground v.1.15,2013-05-28 01:23:00,
2013-05-27 21:28:00,60.2,44.4,30.15,WNW,286,2.0,2.0,56,0.00,,,0.00,Wunderground v.1.15,2013-05-28 01:28:00,
2013-05-27 21:34:00,60.2,44.4,30.15,WNW,286,1.0,2.0,56,0.00,,,0.00,Wunderground v.1.15,2013-05-28 01:34:00,
2013-05-27 21:39:00,60.0,44.7,30.15,WNW,286,2.0,3.0,57,0.00,,,0.00,Wunderground v.1.15,2013-05-28 01:39:00,
2013-05-27 21:45:00,59.9,44.6,30.16,WNW,286,2.0,3.0,57,0.00,,,0.00,Wunderground v.1.15,2013-05-28 01:45:00,
2013-05-27 21:51:00,59.9,44.6,30.16,WNW,286,2.0,3.0,57,0.00,,,0.00,Wunderground v.1.15,2013-05-28 01:51:00,
2013-05-27 21:56:00,59.8,44.5,30.16,WNW,286,2.0,3.0,57,0.00,,,0.00,Wunderground v.1.15,2013-05-28 01:56:00,
2013-05-27 22:01:00,59.8,44.5,30.16,WNW,286,2.0,2.0,57,0.00,,,0.00,Wunderground v.1.15,2013-05-28 02:01:00,
2013-05-27 22:07:00,59.7,44.9,30.16,WNW,286,1.0,2.0,58,0.00,,,0.00,Wunderground v.1.15,2013-05-28 02:07:00,
2013-05-27 22:13:00,59.5,44.7,30.16,WNW,286,1.0,3.0,58,0.00,,,0.00,Wunderground v.1.15,2013-05-28 02:13:00,
2013-05-27 22:18:00,59.5,44.7,30.16,WNW,286,2.0,3.0,58,0.00,,,0.00,Wunderground v.1.15,2013-05-28 02:18:00,
2013-05-27 22:24:00,59.5,44.7,30.16,WNW,286,2.0,3.0,58,0.00,,,0.00,Wunderground v.1.15,2013-05-28 02:24:00,
2013-05-27 22:29:00,59.4,44.6,30.16,WNW,286,2.0,3.0,58,0.00,,,0.00,Wunderground v.1.15,2013-05-28 02:29:00,
2013-05-27 22:35:00,59.3,45.0,30.16,WNW,286,3.0,3.0,59,0.00,,,0.00,Wunderground v.1.15,2013-05-28 02:35:00,
2013-05-27 22:40:00,59.2,44.9,30.16,WNW,286,2.0,2.0,59,0.00,,,0.00,Wunderground v.1.15,2013-05-28 02:40:00,
2013-05-27 22:45:00,59.1,44.8,30.16,WNW,286,2.0,2.0,59,0.00,,,0.00,Wunderground v.1.15,2013-05-28 02:45:00,
2013-05-27 22:51:00,59.1,44.8,30.16,WNW,286,2.0,2.0,59,0.00,,,0.00,Wunderground v.1.15,2013-05-28 02:51:00,
2013-05-27 22:56:00,59.1,44.8,30.16,WNW,286,3.0,3.0,59,0.00,,,0.00,Wunderground v.1.15,2013-05-28 02:56:00,
2013-05-27 23:01:00,59.0,45.1,30.16,WNW,286,3.0,4.0,60,0.00,,,0.00,Wunderground v.1.15,2013-05-28 03:01:00,
2013-05-27 23:07:00,58.9,45.0,30.16,WNW,284,3.0,4.0,60,0.00,,,0.00,Wunderground v.1.15,2013-05-28 03:07:00,
2013-05-27 23:13:00,58.9,45.0,30.16,West,280,3.0,4.0,60,0.00,,,0.00,Wunderground v.1.15,2013-05-28 03:13:00,
2013-05-27 23:19:00,58.8,44.9,30.16,West,280,3.0,4.0,60,0.00,,,0.00,Wunderground v.1.15,2013-05-28 03:19:00,
2013-05-27 23:25:00,58.7,44.8,30.16,West,280,3.0,3.0,60,0.00,,,0.00,Wunderground v.1.15,2013-05-28 03:25:00,
2013-05-27 23:31:00,58.7,44.8,30.17,West,280,2.0,2.0,60,0.00,,,0.00,Wunderground v.1.15,2013-05-28 03:31:00,
2013-05-27 23:37:00,58.7,44.8,30.16,West,280,2.0,2.0,60,0.00,,,0.00,Wunderground v.1.15,2013-05-28 03:37:00,
2013-05-27 23:43:00,58.7,44.8,30.16,West,280,1.0,2.0,60,0.00,,,0.00,Wunderground v.1.15,2013-05-28 03:43:00,
2013-05-27 23:49:00,58.7,44.8,30.16,West,280,1.0,2.0,60,0.00,,,0.00,Wunderground v.1.15,2013-05-28 03:49:00,
2013-05-27 23:54:00,58.7,44.8,30.16,West,280,0.0,1.0,60,0.00,,,0.00,Wunderground v.1.15,2013-05-28 03:54:00,
2013-05-27 23:59:00,58.7,44.8,30.16,West,280,0.0,1.0,60,0.00,,,0.00,Wunderground v.1.15,2013-05-28 03:59:00,